Weather History for Raton, NM

Change the Weather History Date:

Saturday, March 30, 2013

  Actual Average (KTAD) Record (KTAD)
Temperature  
Mean Temperature 51 °F 45 °F  
Max Temperature 73 °F 61 °F 79 °F (1971)
Min Temperature 30 °F 30 °F 8 °F (1987)
Degree Days  
Heating Degree Days 14 20  
Month to date heating degree days 688  
Since 1 July heating degree days 4810  
Cooling Degree Days 0 0  
Month to date cooling degree days 0  
Year to date cooling degree days 0  
Growing Degree Days 1 (Base 50)    
Moisture  
Dew Point 21 °F    
Average Humidity 37    
Maximum Humidity 69    
Minimum Humidity 8    
Precipitation  
Precipitation 0.00 in 0.03 in 0.58 in (1973)
Month to date precipitation 0.86  
Year to date precipitation 1.75  
Sea Level Pressure  
Sea Level Pressure 29.97 in    
Wind  
Wind Speed 7 mph (ENE)    
Max Wind Speed 25 mph    
Max Gust Speed 32 mph    
Visibility 10 miles    
Events Rain    
T = Trace of Precipitation, MM = Missing Value Source: NWS Daily Summary

Daily Weather History Graph

Daily Weather History Graph

Search for Another Location

Airport:

Trip Planner

Search our weather history database for the weather conditions in past years. The results will help you decide how hot, cold, wet, or windy it might be!

Date:

Astronomy

Mar. 30, 2013 Rise Set
Actual Time 6:46 AM MDT 7:18 PM MDT
Civil Twilight 6:20 AM MDT 7:44 PM MDT
Nautical Twilight 5:49 AM MDT 8:15 PM MDT
Astronomical Twilight 5:18 AM MDT 8:46 PM MDT
Moon 11:21 PM MDT (3/30) 8:49 AM MDT (3/30)
Length of Visible Light 13h 24m
Length of Day
12h 32m
Waning Gibbous, 86% of the Moon is Illuminated
Mar 30
Waning Gibbous
Apr 2
Last Quarter
Apr 10
New
Apr 18
First Quarter
Apr 25
Full

Hourly Weather History & Observations

Time (MDT) Temp. Windchill Dew Point Humidity Pressure Visibility Wind Dir Wind Speed Gust Speed Precip Events Conditions
12:53 AM 37.0 °F 31.6 °F 23.0 °F 57% 30.03 in 10.0 mi NE 6.9 mph - N/A   Clear
1:53 AM 36.0 °F 33.3 °F 23.0 °F 59% 30.02 in 10.0 mi SE 3.5 mph - N/A   Clear
2:53 AM 33.1 °F 26.1 °F 21.9 °F 64% 30.03 in 10.0 mi ENE 8.1 mph - N/A   Clear
3:53 AM 30.9 °F 26.2 °F 21.0 °F 67% 30.06 in 10.0 mi NE 4.6 mph - N/A   Clear
4:53 AM 32.0 °F 24.2 °F 21.9 °F 66% 30.04 in 10.0 mi ENE 9.2 mph - N/A   Clear
5:53 AM 30.0 °F - 21.0 °F 69% 30.06 in 10.0 mi Calm Calm - N/A   Clear
6:53 AM 33.1 °F 27.7 °F 21.9 °F 64% 30.06 in 10.0 mi ENE 5.8 mph - N/A   Clear
7:53 AM 39.0 °F 36.8 °F 25.0 °F 57% 30.09 in 10.0 mi NNE 3.5 mph - N/A   Clear
8:53 AM 46.0 °F 44.8 °F 25.0 °F 44% 30.07 in 10.0 mi SE 3.5 mph - N/A   Clear
9:53 AM 55.0 °F - 24.1 °F 30% 30.03 in 10.0 mi South 3.5 mph - N/A   Clear
10:53 AM 63.0 °F - 21.0 °F 20% 30.00 in 10.0 mi SE 9.2 mph - N/A   Clear
11:53 AM 66.0 °F - 19.9 °F 17% 29.96 in 10.0 mi East 5.8 mph - N/A   Clear
12:53 PM 68.0 °F - 17.1 °F 14% 29.93 in 10.0 mi Variable 6.9 mph 16.1 mph N/A   Scattered Clouds
1:53 PM 72.0 °F - 7.0 °F 8% 29.89 in 10.0 mi West 17.3 mph 25.3 mph N/A   Scattered Clouds
2:53 PM 69.1 °F - 10.9 °F 11% 29.89 in 10.0 mi WSW 8.1 mph 18.4 mph N/A   Clear
3:53 PM 68.0 °F - 10.9 °F 11% 29.87 in 10.0 mi Variable 4.6 mph - N/A   Partly Cloudy
4:53 PM 66.0 °F - 14.0 °F 13% 29.87 in 10.0 mi Variable 4.6 mph 26.5 mph N/A   Mostly Cloudy
5:53 PM 66.0 °F - 15.1 °F 14% 29.87 in 10.0 mi South 9.2 mph - N/A   Scattered Clouds
6:53 PM 62.1 °F - 16.0 °F 17% 29.87 in 10.0 mi SSW 13.8 mph - N/A   Partly Cloudy
7:53 PM 60.1 °F - 18.0 °F 20% 29.88 in 10.0 mi NNE 8.1 mph - N/A   Overcast
8:53 PM 60.1 °F - 21.9 °F 23% 29.91 in 10.0 mi NNW 16.1 mph 31.1 mph N/A   Overcast
9:53 PM 57.0 °F - 26.1 °F 30% 29.93 in 10.0 mi North 11.5 mph - 0.00 in   Mostly Cloudy
10:53 PM 48.9 °F - 34.0 °F 56% 30.00 in 10.0 mi NNE 25.3 mph 32.2 mph 0.00 in Rain Light Rain
11:53 PM 46.0 °F 38.0 °F 34.0 °F 63% 30.01 in 10.0 mi NNE 21.9 mph 32.2 mph 0.00 in   Overcast